Location: Bednik
(45.3500°N, 16.3833°E)
Time: 05:30:29
(UTC+00:00)

CENTAUR R/B - Pass Details

Date: 08 August 2020
Orbit: 754 x 1434 km, 63.5° (Epoch: 17 September)

Event Time Altitude Azimuth Distance (km) Brightness Sun altitude
Exits shadow 22:51:54 - 261° (W) 2,849 4.9 -28.8°
Reaches altitude 10° 22:52:31 10° 264° (W) 2,655 4.7 -28.8°
Maximum altitude 22:58:09 34° 328° (NNW) 1,670 4.1 -28.9°
Drops below altitude 10° 23:04:42 10° 31° (NNE) 3,107 5.8 -28.9°
Sets 23:08:01 0° 41° (NE) 4,185 6.5 -28.8°
